Torna al catalogo

YAOGAN-37

AttivoMilitareVLEO
NORAD 55244·PAYLOAD·🇨🇳 China

Lanciato Jan 13, 2023 da Jiuquan Satellite Launch Center

Loading…

Prossimi Passaggi (prossime 24 ore)

TLE

AggiornatoSource: Space-Track

Epoca: Sep 14, 2026, 14:22 UTC

1 55244U 23006C   26257.59907824  .00004285  00000-0  21850-3 0  9995
2 55244  43.1984 347.0179 0016901 219.9824 139.9784 15.17895428203460

Traccia YAOGAN-37 in tempo reale con AllMySat

Download on the App Store